LEALLEIB

Guest
Details From LEAL - Alicante
To LEIB - Ibiza
Flight Number -
Tags generated
Created
Modified
Stats Distance 97 nm / 180 km
Max Altitude 1,600 ft / 488 m
Waypoints 3
Social Downloads 2
Likes 0
Share VATSIM

Download

Looking for another format? Having issues loading an existing format? Contact us
Advertisement - Login to hide

Notes

Basic altitude profile: - Ascent Rate: 2500ft/min - Ascent Speed: 250kts - Cruise Altitude: 1600ft - Cruise Speed: 300kts - Descent Rate: 1500ft/min - Descent Speed: 250kts

Route

LEAL BRUNO LEIB

ID Type Via Altitude Latitude Longitude Leg Dist Tot Dist Heading (true) Name
O LEAL APT - 0 ft / 0 m 38.28217˚ -0.55816˚ - 0 nm - Alicante
BRUNO FIX - 1,600 ft / 488 m 38.60830˚ 0.48333˚ 52 nm 52 nm 68° / 69° -
O LEIB APT - 0 ft / 0 m 38.87287˚ 1.37304˚ 44 nm 97 nm 69° / 69° Ibiza

Altitude Profile

Advertisement - Login to hide

LEAL

Details ICAO LEAL (ALC)
Name Alicante
Region Spain
Timezone Europe/Madrid (UTC+2.0)
Stats Elevation 141 ft / 43 m (AMSL)
Location 38.282169° -0.558157°
Runways 1
Magnetic Variation 0.232° E

METAR

LEAL 251300Z 15009KT 090V220 9999 FEW030 24/17 Q1011 NOSIG

Decode

TAF

TAF TAF LEAL 251100Z 2512/2612 09010KT 9999 FEW030 TX30/2512Z TN17/2606Z TEMPO 2512/2517 15015G25KT BECMG 2516/2519 06008KT

Decode

Departure Runways

ID Width Length Bearing (true) Bearing (mag) Surface Threshold Offset Overrun Length
10 148 ft / 45 m 9,799 ft / 2,987 m 100.07° 99.84° Asphalt 0 ft / 0 m 164 ft / 50 m
28 148 ft / 45 m 9,799 ft / 2,987 m 280.09° 279.86° Asphalt 0 ft / 0 m 197 ft / 60 m

LEIB

Details ICAO LEIB (IBZ)
Name Ibiza
Region Spain
Timezone Europe/Madrid (UTC+2.0)
Stats Elevation 20 ft / 6 m (AMSL)
Location 38.872871° 1.373045°
Runways 1
Magnetic Variation 0.711° E

METAR

LEIB 251300Z 17012KT 140V210 9999 FEW013 BKN016 22/18 Q1012 NOSIG

Decode

TAF

TAF LEIB 250800Z 2509/2609 18013KT 9999 FEW040 TX24/2512Z TN15/2606Z PROB40 TEMPO 2509/2512 BKN010 PROB40 TEMPO 2509/2512 FEW050CB BECMG 2520/2522 VRB03KT TEMPO 2522/2607 2000 BR

Decode

Destination Runways

ID Width Length Bearing (true) Bearing (mag) Surface Threshold Offset Overrun Length
06 148 ft / 45 m 9,153 ft / 2,790 m 61.85° 61.14° Asphalt 0 ft / 0 m 213 ft / 65 m
24 148 ft / 45 m 9,153 ft / 2,790 m 241.86° 241.15° Asphalt 0 ft / 0 m 197 ft / 60 m

Approach Navaids

Runway Type Ident Frequency Range Bearing (true) Bearing (mag) Slope Elevation
06 Localiser IBI 111.10 MHz 18 nm / 33 km 62.00° 61.29° - 20 ft / 6 m (AMSL)
06 Glidescope IBI 111.10 MHz 10 nm / 19 km 62.00° 61.29° 3.00° 20 ft / 6 m (AMSL)
06 DME IBI 111.10 MHz 18 nm / 33 km - - - 20 ft / 6 m (AMSL)
24 Localiser IBZ 109.50 MHz 18 nm / 33 km 241.81° 241.10° - 15 ft / 5 m (AMSL)
24 Glidescope IBZ 109.50 MHz 10 nm / 19 km 241.86° 241.15° 3.00° 69 ft / 21 m (AMSL)
24 DME IBZ 109.50 MHz 18 nm / 33 km - - - 69 ft / 21 m (AMSL)

Popular Alternatives